G4CVN Weather Reports


time (UTC)temp
F
wind
direction
speed
knots
gust
knots
rain 1hr
in
rain 24hr
in
rain mn
in
humidity
%
barometer
mb
20260507083516 55 0.0 1.7 0.00 0.00 0.00 77 1020.2
20260507082516 55 225 0.9 1.7 0.00 0.00 0.00 77 1020.2
20260507081516 55 225 0.9 3.5 0.00 0.00 0.00 75 1020.1
20260507080516 55 225 0.9 3.5 0.00 0.00 0.00 79 1020.1
20260507075516 53 225 0.9 2.6 0.00 0.00 0.00 82 1020.1
20260507074516 52 293 0.9 1.7 0.00 0.00 0.00 86 1020.0
20260507073616 51 0.0 0.9 0.00 0.00 0.00 89 1020.0
20260507072516 50 293 0.9 1.7 0.00 0.00 0.00 92 1020.0
20260507071516 49 0.0 1.7 0.00 0.00 0.00 94 1019.9
20260507070516 48 0.0 1.7 0.00 0.00 0.00 95 1019.9
20260507065516 47 0.0 1.7 0.00 0.00 0.00 96 1019.8
20260507064516 45 0.0 0.0 0.00 0.00 0.00 95 1019.8
20260507063516 44 0.0 0.0 0.00 0.00 0.00 94 1019.8
20260507062516 44 0.0 0.0 0.00 0.00 0.00 94 1019.8
20260507061516 43 0.0 0.0 0.00 0.00 0.00 94 1019.8
20260507060516 43 0.0 0.0 0.00 0.00 0.00 93 1019.8
20260507055516 43 0.0 0.0 0.00 0.00 0.00 93 1019.7
20260507054536 43 0.0 0.0 0.00 0.00 0.00 92 1019.6
20260507053536 42 0.0 0.0 0.00 0.00 0.00 92 1019.5
20260507052516 43 0.0 0.0 0.00 0.00 0.00 92 1019.5
20260507051516 43 0.0 0.0 0.00 0.00 0.00 92 1019.4
20260507050516 43 0.0 0.0 0.00 0.00 0.00 92 1019.4
20260507045516 43 0.0 0.0 0.00 0.00 0.00 92 1019.4
20260507044516 43 0.0 0.0 0.00 0.00 0.00 92 1019.4
20260507043516 43 0.0 0.0 0.00 0.00 0.00 91 1019.3
20260507042536 43 0.0 0.0 0.00 0.00 0.00 91 1019.3
20260507041516 44 0.0 0.0 0.00 0.00 0.00 91 1019.2
20260507040516 44 0.0 0.0 0.00 0.00 0.00 91 1019.1
20260507035516 44 0.0 0.0 0.00 0.00 0.00 91 1019.2
20260507034516 44 0.0 0.0 0.00 0.00 0.00 91 1019.2
20260507033536 44 0.0 0.0 0.00 0.00 0.00 91 1019.2
20260507032516 44 0.0 0.0 0.00 0.00 0.00 91 1019.1
20260507031536 44 0.0 0.0 0.00 0.00 0.00 90 1019.1
20260507030516 44 0.0 0.0 0.00 0.00 0.00 89 1019.1
20260507025516 44 0.0 0.0 0.00 0.00 0.00 89 1019.0
20260507024516 45 0.0 0.0 0.00 0.00 0.00 89 1019.0
20260507023556 45 0.0 0.0 0.00 0.00 0.00 89 1019.0
20260507022516 45 0.0 0.0 0.00 0.00 0.00 88 1019.0
20260507021536 46 0.0 0.0 0.00 0.00 0.00 88 1019.0
20260507020536 46 0.0 0.0 0.00 0.00 0.00 88 1018.9
20260507015516 46 0.0 0.0 0.00 0.00 0.00 87 1018.8
20260507014516 47 0.0 0.0 0.00 0.00 0.00 87 1018.8
20260507013516 47 0.0 0.0 0.00 0.00 0.00 86 1018.8
20260507012516 47 0.0 0.0 0.00 0.00 0.00 86 1018.7
20260507011556 48 0.0 0.0 0.00 0.00 0.00 85 1018.8
20260507010556 48 0.0 0.0 0.00 0.00 0.00 84 1018.8
20260507005516 49 0.0 0.0 0.00 0.00 0.00 84 1018.8
20260507004536 49 0.0 0.0 0.00 0.00 0.00 84 1018.8
20260507003516 49 0.0 0.0 0.00 0.00 0.00 84 1018.8
20260507002617 50 0.0 0.0 0.00 0.00 0.00 83 1018.9
20260507001516 50 0.0 0.0 0.00 0.00 0.00 84 1018.9
20260507000516 50 0.0 0.0 0.00 0.00 0.00 84 1018.9
20260506235516 50 0.0 0.0 0.00 0.00 0.00 83 1018.9
20260506234516 50 0.0 0.0 0.00 0.00 0.00 83 1018.9
20260506233516 50 0.0 0.0 0.00 0.00 0.00 83 1018.8
20260506232516 50 0.0 0.0 0.00 0.00 0.00 83 1018.7
20260506231516 50 0.0 0.0 0.00 0.00 0.00 83 1018.7
20260506230516 51 0.0 0.0 0.00 0.00 0.00 83 1018.7
20260506225516 51 0.0 0.0 0.00 0.00 0.00 83 1018.7
20260506224516 51 0.0 0.0 0.00 0.00 0.00 82 1018.8
20260506223516 51 0.0 0.0 0.00 0.00 0.00 81 1018.7
20260506222516 51 0.0 0.0 0.00 0.00 0.00 81 1018.7
20260506221536 51 0.0 0.0 0.00 0.00 0.00 80 1018.6
20260506220516 52 0.0 0.0 0.00 0.00 0.00 79 1018.5
20260506215536 52 0.0 0.0 0.00 0.00 0.00 78 1018.6
20260506214516 52 0.0 0.0 0.00 0.00 0.00 77 1018.6
20260506213536 52 0.0 0.0 0.00 0.00 0.00 76 1018.6
20260506212516 52 0.0 0.9 0.00 0.00 0.00 76 1018.5
20260506211516 52 0.0 0.0 0.00 0.00 0.00 75 1018.4
20260506210516 52 0.0 0.0 0.00 0.00 0.00 75 1018.2
20260506205536 53 0.0 0.0 0.00 0.00 0.00 74 1018.2
20260506204516 53 0.0 0.9 0.00 0.00 0.00 73 1018.2
20260506203556 53 0.0 1.7 0.00 0.00 0.00 72 1018.1
20260506202516 53 0.0 0.9 0.00 0.00 0.00 72 1018.0
20260506201516 54 0.0 1.7 0.00 0.00 0.00 71 1018.0
20260506200516 54 0.0 0.9 0.00 0.00 0.00 70 1017.9
20260506195516 54 0.0 0.0 0.00 0.00 0.00 70 1017.7
20260506194536 54 0.0 0.9 0.00 0.00 0.00 69 1017.6
20260506193516 55 0.0 1.7 0.00 0.00 0.00 67 1017.5
20260506192516 55 0.0 0.9 0.00 0.00 0.00 66 1017.4
20260506191516 55 0.0 1.7 0.00 0.00 0.00 65 1017.3
20260506190536 55 0.0 0.9 0.00 0.00 0.00 64 1017.2
20260506185516 56 0.0 0.9 0.00 0.00 0.00 63 1017.2
20260506184516 56 0.0 1.7 0.00 0.00 0.00 63 1017.1
20260506183516 56 0.0 1.7 0.00 0.00 0.00 64 1017.1
20260506182516 57 0.0 1.7 0.00 0.00 0.00 63 1016.9
20260506181516 57 0.0 0.9 0.00 0.00 0.00 63 1016.8
20260506180516 57 0.0 1.7 0.00 0.00 0.00 63 1016.8
20260506175516 57 0.0 0.9 0.00 0.00 0.00 64 1016.7
20260506174516 57 0.0 1.7 0.00 0.00 0.00 64 1016.6
20260506173516 57 0.0 1.7 0.00 0.00 0.00 63 1016.6
20260506172516 57 0.0 1.7 0.00 0.00 0.00 62 1016.6
20260506171516 58 0 0.9 4.3 0.00 0.00 0.00 62 1016.6
20260506170516 58 0.0 1.7 0.00 0.00 0.00 62 1016.6
20260506165516 58 0.0 0.9 0.00 0.00 0.00 61 1016.6
20260506164516 59 0 0.9 4.3 0.00 0.00 0.00 60 1016.5
20260506163516 59 45 0.9 2.6 0.00 0.00 0.00 61 1016.4
20260506162516 59 0.0 1.7 0.00 0.00 0.00 61 1016.4
20260506161516 59 0.0 1.7 0.00 0.00 0.00 60 1016.5
20260506160516 60 338 0.9 3.5 0.00 0.00 0.00 59 1016.5
20260506155516 60 293 0.9 4.3 0.00 0.00 0.00 59 1016.5
20260506154516 59 23 0.9 2.6 0.00 0.00 0.00 61 1016.6
20260506153536 59 0.0 1.7 0.00 0.00 0.00 60 1016.5
20260506152516 59 338 0.9 3.5 0.00 0.00 0.00 59 1016.6
20260506151516 59 23 0.9 2.6 0.00 0.00 0.00 60 1016.5
20260506150516 59 23 0.9 4.3 0.00 0.00 0.00 60 1016.5
20260506145536 59 293 0.9 3.5 0.00 0.00 0.00 60 1016.5
20260506144516 59 45 0.9 3.5 0.00 0.00 0.00 57 1016.5
20260506143516 60 0 0.9 6.1 0.00 0.00 0.00 54 1016.5
20260506142516 61 0.0 2.6 0.00 0.00 0.00 55 1016.4
20260506141516 61 0.0 0.9 0.00 0.00 0.00 54 1016.3
20260506140516 62 0.0 3.5 0.00 0.00 0.00 51 1016.3
20260506135516 63 338 0.9 3.5 0.00 0.00 0.00 51 1016.3
20260506134536 63 0.0 0.9 0.00 0.00 0.00 50 1016.4
20260506133516 64 0 0.9 2.6 0.00 0.00 0.00 48 1016.4
20260506132516 63 0.0 1.7 0.00 0.00 0.00 50 1016.4
20260506131556 65 0 0.9 4.3 0.00 0.00 0.00 46 1016.4
20260506130516 66 0 1.7 4.3 0.00 0.00 0.00 45 1016.5
20260506125516 67 23 0.9 2.6 0.00 0.00 0.00 47 1016.3
20260506124516 66 338 0.9 3.5 0.00 0.00 0.00 47 1016.4
20260506123516 66 45 0.9 4.3 0.00 0.00 0.00 50 1016.4
20260506122517 65 23 0.9 4.3 0.00 0.00 0.00 51 1016.3
20260506121516 65 338 0.9 3.5 0.00 0.00 0.00 49 1016.5
20260506120516 65 338 0.9 3.5 0.00 0.00 0.00 50 1016.5
20260506115516 65 0 0.9 3.5 0.00 0.00 0.00 52 1016.5
20260506114516 64 315 0.9 3.5 0.00 0.00 0.00 49 1016.6
20260506113516 64 23 1.7 6.1 0.00 0.00 0.00 50 1016.7
20260506112516 64 0 0.9 6.1 0.00 0.00 0.00 50 1016.6
20260506111516 63 0 0.9 4.3 0.00 0.00 0.00 51 1016.5
20260506110516 63 338 1.7 6.1 0.00 0.00 0.00 51 1016.6
20260506105516 62 338 0.9 5.2 0.00 0.00 0.00 51 1016.6
20260506104516 62 0 1.7 4.3 0.00 0.00 0.00 52 1016.6
20260506103516 61 0 0.9 6.1 0.00 0.00 0.00 54 1016.6
20260506102536 60 248 0.9 4.3 0.00 0.00 0.00 58 1016.6
20260506101536 60 0 0.9 4.3 0.00 0.00 0.00 58 1016.7
20260506100516 60 338 0.9 5.2 0.00 0.00 0.00 60 1016.7
20260506095516 59 338 0.9 3.5 0.00 0.00 0.00 62 1016.7
20260506094517 59 0 0.9 4.3 0.00 0.00 0.00 60 1016.7
20260506093516 59 0 0.9 3.5 0.00 0.00 0.00 62 1016.7
20260506092516 59 0 0.9 1.7 0.00 0.00 0.00 61 1016.8
20260506091536 58 0 0.9 2.6 0.00 0.00 0.00 62 1016.7
20260506090516 57 0 0.9 3.5 0.00 0.00 0.00 64 1016.7
20260506085536 56 23 0.9 5.2 0.00 0.00 0.00 67 1016.8
20260506084636 55 293 0.9 2.6 0.00 0.00 0.00 69 1016.7